[[[{"header":{"parameterUnit":"kt","parameterCategory":2,"dx":1,"dy":1,"la1":30.253999710083008,"la2":30.299108505249023,"lo1":-89.0895004272461,"lo2":-89.04439544677734,"nx":28,"ny":28,"refTime":"2022-10-20T21:00:00:Z","depth":0,"parameterNumber":1,"parameterNumberName":"U-component_of_WINDS"},"data":[-3.3583,-3.3608,-3.3589,-3.361,-3.3596,-3.3607,-3.3605,-3.3601,-3.3592,-3.3604,-3.3607,-3.3591,-3.3574,-3.3575,-3.3578,-3.357,-3.3572,-3.3598,-3.3584,-3.3489,-3.3474,-3.3461,-3.3452,-3.3599,-3.3599,-3.3684,-3.3684,-3.3685,-3.3522,-3.3509,-3.3514,-3.3504,-3.3509,-3.3474,-3.3464,-3.347,-3.3481,-3.347,-3.3471,-3.348,-3.3484,-3.3457,-3.3458,-3.3471,-3.3453,-3.3473,-3.347,-3.3468,-3.3367,-3.3358,-3.3487,-3.3487,-3.3487,-3.3487,-3.3487,-3.3487,-3.3406,-3.3422,-3.3404,-3.3408,-3.3398,-3.3392,-3.3404,-3.3381,-3.3385,-3.3382,-3.3356,-3.3368,-3.3352,-3.3341,-3.3332,-3.3341,-3.3315,-3.3329,-3.3332,-3.3336,-3.3344,-3.3225,-3.334,-3.334,-3.3339,-3.3339,-3.3339,0,-3.3314,-3.3296,-3.3297,-3.3294,-3.3296,-3.329,-3.3282,-3.3289,-3.3241,-3.3246,-3.3252,-3.3252,-3.3252,-3.3255,-3.3249,-3.3235,-3.3196,-3.319,-3.3199,-3.321,-3.3224,-3.3217,-3.3052,-3.3186,-3.3184,-3.3183,-3.3182,-3.3182,-3.3195,-3.3214,-3.3184,-3.3188,-3.3177,-3.3184,-3.3183,-3.3139,-3.3141,-3.3124,-3.314,-3.3142,-3.314,-3.3153,-3.3124,-3.3123,-3.3103,-3.3157,-3.3102,-3.3115,-3.3103,-3.3101,-3.3103,-3.3167,-3.3169,-3.317,-3.3172,0,-3.313,-3.3093,-3.3116,-3.3082,-3.3074,-3.3098,-3.3069,-3.3082,-3.3056,-3.3071,-3.3072,-3.3032,-3.3037,-3.2998,-3.2996,-3.2976,-3.3017,-3.2998,-3.3023,-3.3017,-3.306,-3.3056,-3.3208,-3.3226,-3.3075,-3.3076,-3.3077,0,-3.3012,-3.3039,-3.2982,-3.2997,-3.3027,-3.2979,-3.301,-3.299,-3.2973,-3.2984,-3.2933,-3.2944,-3.2891,-3.2898,-3.2867,-3.2894,-3.2893,-3.2879,-3.2869,-3.2882,-3.2883,-3.2879,-3.2871,-3.2849,-3.2848,-3.2848,-3.2847,0,-3.2912,-3.2912,-3.2936,-3.293,-3.2894,-3.2907,-3.2893,-3.2871,-3.287,-3.2863,-3.2862,-3.2858,-3.2854,-3.2853,-3.2812,-3.2777,-3.2843,-3.2786,-3.2828,-3.2829,-3.2841,-3.284,-3.2988,-3.2846,-3.2846,-3.2845,-3.2845,0,-3.2808,-3.2801,-3.2842,-3.281,-3.2811,-3.2828,-3.2818,-3.2822,-3.2803,-3.2784,-3.2778,-3.2736,-3.2755,-3.2702,-3.2727,-3.2693,-3.2694,-3.268,-3.2683,-3.2679,-3.2619,-3.2705,-3.2852,-3.2865,-3.2681,-3.268,-3.2679,0,-3.2704,-3.2734,-3.2691,-3.273,-3.2737,-3.2677,-3.2695,-3.2678,-3.2653,-3.2656,-3.2629,-3.2632,-3.2584,-3.2578,-3.2597,-3.2568,-3.2613,-3.2561,-3.2566,-3.2567,-3.2572,-3.2707,-3.2737,-3.2825,-3.2661,-3.2663,-3.2664,0,-3.2617,-3.2569,-3.2579,-3.2569,-3.2536,-3.2541,-3.2561,-3.2553,-3.2557,-3.2543,-3.2558,-3.2562,-3.2525,-3.2516,-3.2481,-3.2502,-3.2581,-3.2458,-3.2457,-3.2481,-3.2648,-3.2677,-3.2692,-3.2553,-3.2555,-3.2557,-3.265,0,-3.2469,-3.2477,-3.2502,-3.2478,-3.2476,-3.2496,-3.2449,-3.2453,-3.2419,-3.239,-3.2411,-3.2383,-3.2373,-3.2378,-3.2344,-3.2405,-3.2387,-3.2347,-3.2287,-3.2377,-3.2406,-3.2418,-3.2249,-3.2247,-3.2245,-3.2244,0,0,-3.2378,-3.2386,-3.2335,-3.235,-3.2344,-3.2277,-3.2304,-3.229,-3.2263,-3.226,-3.2228,-3.2228,-3.2205,-3.2235,-3.226,-3.2256,-3.2262,-3.223,-3.2335,-3.2346,-3.2355,-3.2387,-3.24,-3.2241,-3.224,-3.2239,-3.2239,0,-3.2312,-3.2291,-3.2316,-3.23,-3.2272,-3.2239,-3.2246,-3.2206,-3.2188,-3.2206,-3.2149,-3.2156,-3.2154,-3.2139,-3.2131,-3.2228,-3.2182,-3.2228,-3.2296,-3.232,-3.2333,-3.2344,-3.2378,-3.2391,-3.2235,-3.2235,-3.2235,0,-3.2217,-3.2187,-3.2194,-3.2174,-3.2155,-3.2162,-3.209,-3.2101,-3.2106,-3.2028,-3.2047,-3.2024,-3.1998,-3.2032,-3.2045,-3.2015,-3.2113,-3.2072,-3.2082,-3.2081,-3.2101,-3.2117,-3.213,-3.195,-3.1949,-3.1949,0,0,-3.2166,-3.2172,-3.2122,-3.2156,-3.2148,-3.2097,-3.2096,-3.2059,-3.2036,-3.2027,-3.1995,-3.1975,-3.1974,-3.1974,-3.197,-3.2014,-3.2004,-3.2039,-3.2053,-3.2064,-3.2069,-3.2093,-3.2108,-3.1946,-3.1946,-3.1945,0,0,-3.2141,-3.2085,-3.2053,-3.2085,-3.2066,-3.2019,-3.2041,-3.2001,-3.1991,-3.1983,-3.1921,-3.1912,-3.1942,-3.1921,-3.1887,-3.1948,-3.1891,-3.1898,-3.196,-3.1976,-3.1989,-3.1992,-3.1806,0,0,0,0,0,-3.2047,-3.2092,-3.2064,-3.2062,-3.2034,-3.2035,-3.2031,-3.1981,-3.1942,-3.1962,-3.1929,-3.188,-3.1891,-3.1859,-3.1858,-3.1895,-3.1907,-3.1914,-3.192,-3.201,-3.2027,-3.2042,0,0,0,0,0,0,-3.2046,-3.2043,-3.2063,-3.2018,-3.2011,-3.2033,-3.1957,-3.1944,-3.1939,-3.193,-3.1888,-3.1879,-3.1835,-3.1856,-3.1856,-3.1892,-3.1806,-3.191,-3.1915,-3.1921,-3.2016,-3.203,-3.2042,0,0,0,0,0,-3.2044,-3.2042,-3.2011,-3.2017,-3.2011,-3.1955,-3.1955,-3.1943,-3.1938,-3.1886,-3.1875,-3.19,-3.1838,-3.1834,-3.1856,-3.1893,-3.1806,-3.1806,-3.1913,-3.1918,-3.1922,-3.2023,0,0,0,0,0,0,-3.2043,-3.2032,-3.2009,-3.2005,-3.1994,-3.1953,-3.1944,-3.1943,-3.1894,-3.1883,-3.1895,-3.1888,-3.184,-3.1837,-3.1834,-3.1897,-3.1806,-3.1806,-3.1806,-3.1917,-3.1921,-3.1924,0,0,0,0,0,0,-3.2033,-3.203,-3.2007,-3.1982,-3.1975,-3.1951,-3.1943,-3.1953,-3.1894,-3.1905,-3.1898,-3.1892,-3.1844,-3.1839,-3.1837,-3.1855,-3.1806,-3.1806,-3.1806,-3.1806,-3.192,-3.1923,0,0,0,0,0,0,-3.2031,-3.2028,-3.1982,-3.1977,-3.197,-3.1926,-3.1959,-3.1933,-3.1873,-3.1908,-3.1866,-3.1863,-3.1847,-3.1844,-3.1839,-3.1858,-3.1855,-3.1806,-3.1806,-3.1806,-3.1806,0,0,0,0,0,0,0,-3.2029,-3.206,-3.203,-3.1973,-3.1967,-3.1972,-3.1971,-3.197,-3.1872,-3.187,-3.1867,-3.1864,-3.1805,-3.1805,-3.1805,-3.1861,0,0,-3.1806,-3.1806,0,0,0,0,0,0,0,0,-3.206,-3.206,-3.203,-3.203,-3.2029,-3.1972,-3.1971,-3.197,-3.1872,-3.187,-3.1867,-3.1865,-3.1805,-3.1805,-3.1805,0,0,0,0,0,0,0,0,0,0,0,0,0,0,0,-3.203,-3.203,0,-3.1972,-3.1971,-3.197,-3.1872,-3.187,-3.1868,-3.1866,-3.1805,-3.1805,-3.1805,0,0,0,0,0,0,0,0,0,0,0,0,0,0,0,0,0,0,0,0,0,0,0,0,0,0,0,0,0,0,0,0,0,0,0,0,0,0,0,0,0,0,0,0,0,0,0,0,0,0,0,0,0,0,0,0,0,0,0,0,0,0,0,0,0,0,0,0,0]}],[{"header":{"parameterUnit":"kt","parameterCategory":2,"dx":1,"dy":1,"la1":30.253999710083008,"la2":30.299108505249023,"lo1":-89.0895004272461,"lo2":-89.04439544677734,"nx":28,"ny":28,"refTime":"2022-10-20T21:00:00:Z","depth":0,"parameterNumber":2,"parameterNumberName":"V-component_of_WINDS"},"data":[6.0024,5.9969,5.9969,5.9903,5.989,5.9844,5.9827,5.9803,5.9782,5.9723,5.9688,5.9676,5.9651,5.9605,5.9563,5.9557,5.9539,5.9523,5.9519,5.9601,5.9612,5.9622,5.9637,5.9519,5.9519,5.9435,5.9434,5.9433,6.0087,6.0076,6.0041,6.0006,5.9976,5.9992,5.9963,5.9935,5.9892,5.9865,5.983,5.9776,5.9731,5.971,5.9664,5.9634,5.9636,5.9622,5.9623,5.9618,5.9706,5.9722,5.9621,5.9621,5.9621,5.9621,5.9621,5.9621,6.0202,6.0169,6.0148,6.0109,6.0091,6.0066,6.0032,6.0021,5.9983,5.994,5.9941,5.9889,5.9859,5.98,5.9778,5.9735,5.9749,5.973,5.9725,5.972,5.9716,5.984,5.9726,5.9727,5.9727,5.9727,5.9727,0,6.0285,6.0286,6.0253,6.0219,6.019,6.0162,6.0134,6.0113,6.0109,6.0077,6.0031,6.0002,5.9945,5.9897,5.9852,5.9832,5.9839,5.9839,5.9826,5.9825,5.9831,5.9827,5.997,5.9841,5.9842,5.9843,5.9844,5.9844,6.04,6.0361,6.0336,6.0313,6.0298,6.0258,6.0233,6.0233,6.0206,6.0169,6.0137,6.0091,6.0053,5.9974,5.9954,5.9908,5.9911,5.9863,5.9903,5.9906,5.9909,5.9911,5.9907,5.9854,5.9853,5.9852,5.9851,0,6.0464,6.0462,6.0399,6.0378,6.0371,6.0328,6.0307,6.0271,6.0263,6.0211,6.0198,6.0182,6.0134,6.0122,6.0062,6.0057,5.998,5.9985,5.9992,5.9992,5.9947,5.9952,5.9804,5.9785,5.9907,5.9906,5.9905,0,6.056,6.0508,6.0506,6.047,6.0411,6.0414,6.0354,6.0341,6.0316,6.0275,6.0285,6.0245,6.0237,6.0194,6.0186,6.0122,6.011,6.0102,6.01,6.01,6.0101,6.0082,6.0087,6.0098,6.0099,6.0099,6.01,0,6.0662,6.0598,6.054,6.0525,6.0494,6.0465,6.045,6.0422,6.0396,6.036,6.0343,6.0299,6.0274,6.0238,6.0229,6.0257,6.015,6.0186,6.0141,6.0141,6.0116,6.0117,5.9992,6.0101,6.0101,6.0101,6.0102,0,6.0738,6.0707,6.0623,6.0598,6.0581,6.054,6.0501,6.0464,6.0433,6.0427,6.0397,6.0401,6.0345,6.0382,6.0303,6.0343,6.0317,6.0304,6.0301,6.0293,6.0335,6.0265,6.0148,6.0135,6.0289,6.029,6.0292,0,6.0855,6.0769,6.0771,6.0689,6.0648,6.0665,6.0619,6.0592,6.058,6.0541,6.0526,6.0479,6.0505,6.0488,6.0451,6.0432,6.038,6.0438,6.0374,6.0372,6.0384,6.0277,6.0262,6.0176,6.0311,6.0309,6.0308,0,6.0944,6.091,6.0895,6.0878,6.0845,6.0809,6.0757,6.0713,6.0687,6.0654,6.0608,6.0541,6.0558,6.0529,6.0526,6.0488,6.0415,6.0509,6.0508,6.0492,6.032,6.0307,6.0293,6.0421,6.0418,6.0416,6.0323,0,6.106,6.1017,6.0977,6.0937,6.0909,6.0856,6.0848,6.0818,6.0822,6.081,6.0742,6.0712,6.0662,6.0642,6.0642,6.0559,6.057,6.0587,6.0621,6.0551,6.052,6.0507,6.0668,6.0669,6.067,6.0671,0,0,6.1172,6.111,6.1113,6.1064,6.104,6.1057,6.1002,6.0978,6.093,6.0912,6.0932,6.0832,6.0806,6.0723,6.07,6.0679,6.0663,6.0687,6.0584,6.0575,6.0566,6.0533,6.052,6.0672,6.0672,6.0672,6.0673,0,6.1213,6.1195,6.1143,6.1121,6.1089,6.108,6.1068,6.1036,6.1026,6.096,6.097,6.0927,6.0846,6.0817,6.0792,6.0698,6.0705,6.0683,6.0637,6.0593,6.0582,6.0573,6.0538,6.0526,6.0675,6.0674,6.0674,0,6.13,6.1281,6.1255,6.1202,6.118,6.1135,6.1171,6.1122,6.1088,6.1102,6.1035,6.1016,6.0976,6.0899,6.0864,6.088,6.0744,6.0784,6.0779,6.0774,6.073,6.0717,6.0706,6.0854,6.0855,6.0856,0,0,6.1336,6.1296,6.1273,6.121,6.1196,6.1182,6.1157,6.1157,6.1125,6.1111,6.1087,6.1051,6.1004,6.0973,6.0927,6.0844,6.0834,6.0807,6.0798,6.0792,6.0783,6.0737,6.0725,6.0858,6.0858,6.0858,0,0,6.1351,6.1325,6.1335,6.1262,6.1233,6.1203,6.1163,6.1173,6.1132,6.1137,6.1129,6.1119,6.1047,6.1026,6.1064,6.0938,6.0972,6.0963,6.0954,6.0943,6.0935,6.094,6.1091,0,0,0,0,0,6.139,6.1329,6.1338,6.1325,6.1256,6.1199,6.1189,6.1185,6.1211,6.118,6.1161,6.1171,6.1045,6.1078,6.1062,6.102,6.0892,6.0886,6.088,6.085,6.0839,6.0829,0,0,0,0,0,0,6.1385,6.1369,6.134,6.1307,6.1292,6.1201,6.1243,6.124,6.1214,6.1217,6.1175,6.117,6.1161,6.1086,6.1072,6.1031,6.1096,6.089,6.0885,6.088,6.0846,6.0837,6.0829,0,0,0,0,0,6.1381,6.1368,6.1259,6.1308,6.1294,6.1275,6.1245,6.1243,6.1222,6.1192,6.1188,6.1222,6.1161,6.1148,6.1077,6.1038,6.1106,6.11,6.0886,6.0882,6.0879,6.0842,0,0,0,0,0,0,6.1378,6.1364,6.1256,6.1252,6.1332,6.128,6.1272,6.1246,6.1199,6.1194,6.1239,6.1243,6.1159,6.115,6.114,6.1041,6.1114,6.1108,6.1105,6.0883,6.088,6.0877,0,0,0,0,0,0,6.1371,6.136,6.1254,6.1284,6.1283,6.1284,6.1277,6.1215,6.1198,6.1248,6.1249,6.1241,6.1172,6.115,6.1143,6.1046,6.112,6.1115,6.1111,6.1109,6.0881,6.0878,0,0,0,0,0,0,6.1366,6.1357,6.1285,6.1284,6.1283,6.1232,6.1228,6.1156,6.1229,6.1249,6.1235,6.1238,6.1172,6.1164,6.1145,6.1051,6.1047,6.1119,6.1116,6.1114,6.1112,0,0,0,0,0,0,0,6.1362,6.1426,6.1283,6.1284,6.1283,6.121,6.1209,6.1208,6.123,6.1232,6.1234,6.1237,6.1149,6.1143,6.1138,6.1055,0,0,6.112,6.1117,0,0,0,0,0,0,0,0,6.143,6.1427,6.1283,6.1282,6.1281,6.121,6.1209,6.1208,6.123,6.1232,6.1234,6.1236,6.1147,6.1143,6.1138,0,0,0,0,0,0,0,0,0,0,0,0,0,0,0,6.1283,6.1282,0,6.121,6.1209,6.1208,6.123,6.1232,6.1233,6.1235,6.1146,6.1142,6.1138,0,0,0,0,0,0,0,0,0,0,0,0,0,0,0,0,0,0,0,0,0,0,0,0,0,0,0,0,0,0,0,0,0,0,0,0,0,0,0,0,0,0,0,0,0,0,0,0,0,0,0,0,0,0,0,0,0,0,0,0,0,0,0,0,0,0,0,0,0]}]]]